DW4465 Weather Reports


time (UTC)temp
F
wind
direction
speed
knots
gust
knots
rain 1hr
in
rain 24hr
in
rain mn
in
humidity
%
barometer
mb
20260906221548 74 335 0.9 3.5 0.00 0.55 0.55 90 1012.8
20260906220056 73 345 1.7 7.0 0.00 0.55 0.55 90 1013.0
20260906214555 72 355 1.7 5.2 0.00 0.55 0.55 90 1013.1
20260906213051 72 327 0.0 3.5 0.01 0.55 0.55 90 1013.0
20260906211600 71 28 1.7 3.5 0.01 0.55 0.55 90 1012.9
20260906204551 72 95 0.9 4.3 0.01 0.55 0.55 90 1013.2
20260906203101 71 13 0.0 3.5 0.00 0.54 0.54 90 1013.5
20260906201546 71 50 0.9 3.5 0.01 0.54 0.54 90 1013.7
20260906200057 71 343 0.9 2.6 0.01 0.54 0.54 90 1014.1
20260906194552 70 0 0.0 2.6 0.02 0.54 0.54 90 1014.5
20260906193048 70 0 0.0 3.5 0.03 0.54 0.54 89 1014.6
20260906191547 69 0 1.7 6.1 0.03 0.52 0.52 89 1014.4
20260906190046 69 51 1.7 6.1 0.05 0.52 0.52 89 1014.5
20260906184554 68 350 1.7 3.5 0.08 0.52 0.52 89 1015.5
20260906183049 68 5 0.9 4.3 0.12 0.51 0.51 88 1015.6
20260906181551 68 0 0.0 2.6 0.26 0.49 0.49 88 1015.6
20260906180055 68 0 0.9 4.3 0.32 0.48 0.48 87 1015.7
20260906174553 68 323 0.0 4.3 0.32 0.44 0.44 87 1016.0
20260906173059 67 0 0.0 2.6 0.29 0.39 0.39 86 1015.7
20260906171550 67 0 0.0 4.3 0.16 0.23 0.23 85 1016.5
20260906170047 68 0 0.0 3.5 0.12 0.16 0.16 84 1015.0
20260906164555 68 0 0.9 3.5 0.11 0.12 0.12 83 1014.8
20260906163050 68 0 0.0 1.7 0.09 0.10 0.10 83 1015.0
20260906161545 69 326 0.0 2.6 0.06 0.07 0.07 82 1015.1
20260906160045 69 0 0.0 1.7 0.03 0.04 0.04 81 1014.7
20260906154557 69 0 0.0 0.9 0.01 0.01 0.01 80 1014.2
20260906153046 69 0 0.0 1.7 0.01 0.01 0.01 80 1013.7
20260906151603 69 0 0.0 1.7 0.01 0.01 0.01 79 1014.0
20260906150056 69 346 0.9 4.3 0.01 0.01 0.01 79 1013.3
20260906144548 69 355 0.9 4.3 0.00 0.00 0.00 78 1013.3
20260906143106 69 344 0.9 3.5 0.00 0.00 0.00 77 1013.9
20260906141545 69 301 1.7 4.3 0.00 0.00 0.00 77 1013.8
20260906140054 70 351 0.9 7.0 0.00 0.00 0.00 77 1013.2
20260906134553 70 52 1.7 4.3 0.00 0.00 0.00 75 1013.3
20260906133050 70 18 0.9 3.5 0.00 0.00 0.00 75 1013.4
20260906131554 71 352 0.9 5.2 0.00 0.00 0.00 77 1013.2
20260906130054 71 11 0.0 1.7 0.00 0.00 0.00 78 1013.1
20260906124549 72 312 0.0 3.5 0.00 0.00 0.00 78 1013.1
20260906123048 72 0 0.0 1.7 0.00 0.00 0.00 79 1012.5
20260906121547 72 290 0.0 1.7 0.00 0.00 0.00 78 1012.3
20260906120052 72 0 0.0 0.0 0.00 0.00 0.00 78 1012.0
20260906114551 72 0 0.0 0.9 0.00 0.00 0.00 78 1011.9
20260906113050 72 0 0.0 0.0 0.00 0.00 0.00 78 1011.9
20260906111545 72 0 0.0 0.0 0.00 0.00 0.00 78 1012.0
20260906110053 72 0 0.0 0.0 0.00 0.00 0.00 78 1012.1
20260906104548 71 0 0.0 0.0 0.00 0.00 0.00 78 1012.2
20260906103046 71 0 0.0 0.0 0.00 0.00 0.00 78 1012.2
20260906101554 71 0 0.0 0.0 0.00 0.00 0.00 78 1012.2
20260906100051 71 0 0.0 0.0 0.00 0.00 0.00 77 1012.2
20260906094546 71 0 0.0 0.0 0.00 0.00 0.00 77 1012.1
20260906093115 71 0 0.0 0.0 0.00 0.00 0.00 77 1012.3
20260906091557 71 0 0.0 0.0 0.00 0.00 0.00 77 1012.1
20260906090057 70 0 0.0 0.0 0.00 0.00 0.00 76 1012.2
20260906084548 70 0 0.0 0.0 0.00 0.00 0.00 75 1012.4
20260906083056 70 0 0.0 0.0 0.00 0.00 0.00 75 1012.4
20260906081557 71 0 0.0 0.0 0.00 0.00 0.00 75 1012.6
20260906080054 71 0 0.0 0.0 0.00 0.00 0.00 74 1012.5
20260906074549 71 0 0.0 0.0 0.00 0.00 0.00 73 1012.5
20260906073046 71 0 0.0 0.0 0.00 0.00 0.00 72 1012.5
20260906071556 72 0 0.0 0.0 0.00 0.00 0.00 71 1012.7
20260906070044 72 0 0.0 0.0 0.00 0.00 0.00 71 1012.5
20260906064548 73 0 0.0 0.9 0.00 0.00 0.00 70 1012.2
20260906063047 73 0 0.0 0.9 0.00 0.00 0.00 69 1012.3
20260906061546 73 0 0.0 0.0 0.00 0.00 0.00 68 1012.5
20260906060055 73 0 0.0 0.9 0.00 0.00 0.00 67 1012.5
20260906054554 73 0 0.0 1.7 0.00 0.00 0.00 67 1012.5
20260906053047 74 0 0.0 1.7 0.00 0.00 0.00 67 1012.6
20260906051552 74 0 0.0 1.7 0.00 0.00 0.00 67 1012.8
20260906050110 74 0 0.0 1.7 0.00 0.00 0.00 66 1012.8
20260906044553 75 288 0.0 1.7 0.00 0.00 0.00 65 1012.7
20260906043050 75 288 0.0 2.6 0.00 0.00 0.00 64 1012.7
20260906041555 74 0 0.0 0.9 0.00 0.00 0.00 63 1012.6
20260906040053 75 0 0.0 0.9 0.00 0.00 0.00 64 1012.6
20260906034548 75 0 0.0 1.7 0.00 0.00 0.00 65 1012.5
20260906033046 75 0 0.0 3.5 0.00 0.00 0.00 66 1012.3
20260906031555 76 0 0.0 1.7 0.00 0.00 0.00 67 1012.2
20260906030056 76 309 0.0 2.6 0.00 0.00 0.00 67 1012.0
20260906024546 77 306 0.0 3.5 0.00 0.00 0.00 66 1011.9
20260906023044 77 0 0.0 3.5 0.00 0.00 0.00 65 1012.0
20260906021605 78 0 1.7 7.8 0.00 0.00 0.00 63 1012.0
20260906020047 79 291 0.9 7.0 0.00 0.00 0.00 61 1012.0
20260906014552 80 325 1.7 6.1 0.00 0.00 0.00 58 1011.9
20260906013049 81 0 0.0 2.6 0.00 0.00 0.00 56 1011.9
20260906011547 82 0 0.9 5.2 0.00 0.00 0.00 54 1011.7
20260906010047 84 312 0.9 4.3 0.00 0.00 0.00 51 1011.6
20260906004556 85 323 1.7 3.5 0.00 0.00 0.00 48 1011.6
20260906003102 86 0 0.9 6.1 0.00 0.00 0.00 31 1011.6
20260906001547 86 223 3.5 7.8 0.00 0.00 0.00 31 1011.5
20260906000046 87 206 2.6 7.0 0.00 0.00 0.00 33 1011.5
20260905234603 88 186 2.6 7.8 0.00 0.00 0.00 32 1011.6
20260905233049 88 176 3.5 7.8 0.00 0.00 0.00 30 1011.5
20260905231557 89 194 2.6 7.8 0.00 0.00 0.00 28 1011.5
20260905230051 90 184 1.7 7.8 0.00 0.00 0.00 26 1011.5
20260905224548 89 209 3.5 8.7 0.00 0.00 0.00 24 1011.8
20260905223046 89 177 2.6 7.0 0.00 0.00 0.00 25 1012.0